Waco, TX

5:44 AM CDT on April 24, 2017 (GMT -0500)
Waco Regional

Weather History for KACT - June, 2014

Change the Weather History Date:

Sunday, June 1, 2014

  Actual Average Record
Temperature  
Mean Temperature 79 °F 78 °F  
Max Temperature 89 °F 89 °F 102 °F (1911)
Min Temperature 69 °F 68 °F 52 °F (1964)
Degree Days  
Heating Degree Days 0 0  
Month to date heating degree days 0 0  
Since 1 June heating degree days 0 0  
Since 1 July heating degree days 2611 2142  
Cooling Degree Days 14 13  
Month to date cooling degree days 14 13  
Year to date cooling degree days 401 465  
Since 1 June cooling degree days 14 13  
Growing Degree Days 29 (Base 50)    
Moisture  
Dew Point 69 °F    
Average Humidity 74    
Maximum Humidity 100    
Minimum Humidity 47    
Precipitation  
Precipitation 0.00 in 0.14 in 2.44 in (1909)
Month to date precipitation 0.00 0.14  
Year to date precipitation 11.14 15.03  
Sea Level Pressure  
Sea Level Pressure 29.89 in    
Wind  
Wind Speed 8 mph (SSE)    
Max Wind Speed 16 mph    
Max Gust Speed 20 mph    
Visibility 8 miles    
Events      
T = Trace of Precipitation, MM = Missing Value Source: NWS Daily Summary

Daily Weather History Graph

Daily Weather History Graph

Search for Another Location

Airport or City:

Trip Planner

Search our weather history database for the weather conditions in past years. The results will help you decide how hot, cold, wet, or windy it might be!

Date:

Astronomy

Jun. 01, 2014 Rise Set
Actual Time 6:24 AM CDT 8:29 PM CDT
Civil Twilight 5:56 AM CDT 8:56 PM CDT
Nautical Twilight 5:23 AM CDT 9:30 PM CDT
Astronomical Twilight 4:47 AM CDT 10:06 PM CDT
Moon 9:50 AM CDT (6/1) 11:33 PM CDT (6/1)
Length of Visible Light 15h 00m
Length of Day
14h 04m
Waxing Crescent, 14% of the Moon is Illuminated
Jun 1
Waxing Crescent
Jun 5
First Quarter
Jun 12
Full
Jun 19
Last Quarter
Jun 27
New

Hourly Weather History & Observations

Time (CDT) Temp. Heat Index Dew Point Humidity Pressure Visibility Wind Dir Wind Speed Gust Speed Precip Events Conditions
12:51 AM 72.0 °F - 70.0 °F 93% 29.91 in 7.0 mi Calm Calm - N/A   Clear
1:51 AM 71.1 °F - 69.1 °F 93% 29.89 in 6.0 mi Calm Calm - N/A   Clear
2:51 AM 71.1 °F - 69.1 °F 93% 29.88 in 6.0 mi Calm Calm - N/A   Clear
3:51 AM 70.0 °F - 69.1 °F 97% 29.89 in 4.0 mi Calm Calm - N/A   Mostly Cloudy
4:51 AM 72.0 °F - 70.0 °F 93% 29.89 in 5.0 mi ESE 3.5 mph - N/A   Overcast
5:19 AM 71.6 °F - 69.8 °F 94% 29.91 in 4.0 mi Calm Calm - N/A   Scattered Clouds
5:51 AM 71.1 °F - 70.0 °F 96% 29.90 in 4.0 mi Calm Calm - N/A   Partly Cloudy
6:15 AM 71.6 °F - 69.8 °F 94% 29.92 in 5.0 mi Calm Calm - N/A   Mostly Cloudy
6:51 AM 72.0 °F - 70.0 °F 93% 29.91 in 4.0 mi ESE 5.8 mph - N/A   Overcast
7:23 AM 73.4 °F - 71.6 °F 94% 29.94 in 3.0 mi East 3.5 mph - N/A   Partly Cloudy
7:51 AM 73.0 °F - 71.1 °F 93% 29.92 in 4.0 mi ESE 8.1 mph - N/A   Clear
8:13 AM 75.2 °F - 71.6 °F 89% 29.95 in 5.0 mi ESE 4.6 mph - N/A   Partly Cloudy
8:51 AM 77.0 °F - 71.1 °F 82% 29.94 in 8.0 mi South 8.1 mph - N/A   Clear
9:51 AM 79.0 °F - 72.0 °F 79% 29.95 in 10.0 mi South 6.9 mph - N/A   Partly Cloudy
10:51 AM 80.1 °F 83.6 °F 71.1 °F 74% 29.95 in 9.0 mi South 5.8 mph - N/A   Scattered Clouds
11:51 AM 84.0 °F 88.4 °F 70.0 °F 63% 29.94 in 10.0 mi SSE 8.1 mph - N/A   Partly Cloudy
12:51 PM 87.1 °F 92.0 °F 70.0 °F 57% 29.92 in 10.0 mi South 8.1 mph - N/A   Scattered Clouds
1:51 PM 88.0 °F 92.1 °F 69.1 °F 53% 29.90 in 10.0 mi South 10.4 mph 19.6 mph N/A   Partly Cloudy
2:51 PM 87.1 °F 91.3 °F 69.1 °F 55% 29.89 in 10.0 mi SSE 8.1 mph - N/A   Mostly Cloudy
3:51 PM 89.1 °F 92.9 °F 68.0 °F 50% 29.87 in 10.0 mi SSE 13.8 mph 18.4 mph N/A   Clear
4:51 PM 89.6 °F 92.2 °F 66.2 °F 46% 29.88 in 10.0 mi SSE 11.5 mph - N/A   Clear
5:51 PM 88.0 °F 90.3 °F 66.0 °F 48% 29.85 in 10.0 mi SSE 13.8 mph - N/A   Partly Cloudy
6:51 PM 87.1 °F 89.2 °F 66.0 °F 49% 29.83 in 10.0 mi SSE 12.7 mph - N/A   Clear
7:51 PM 84.9 °F 87.1 °F 66.0 °F 53% 29.83 in 10.0 mi SE 11.5 mph - N/A   Clear
8:51 PM 82.4 °F 84.6 °F 66.2 °F 58% 29.84 in 10.0 mi SE 9.2 mph - N/A   Clear
9:51 PM 80.6 °F 82.7 °F 66.2 °F 61% 29.85 in 10.0 mi SE 13.8 mph - N/A   Clear
10:51 PM 79.0 °F - 68.0 °F 69% 29.85 in 10.0 mi SSE 11.5 mph - N/A   Clear
11:51 PM 78.1 °F - 69.1 °F 74% 29.86 in 10.0 mi SSE 11.5 mph - N/A   Clear